Regional Weather Roundup
Issued by NWS

Home | Current Version | Previous Version | Graphics & Text | Print | Product List | Glossary On
Versions: 1 2 3 4 5 6 7 8 9 10 11 12 13 14 15 16 17 18 19 20 21 22 23 24 25 26 27 28 29 30 31 32 33 34 35 36 37 38 39 40 41 42 43 44 45 46 47 48 49 50
000
ASUS43 KBIS 301910
RWRND

NORTH DAKOTA REGIONAL WEATHER ROUNDUP
NATIONAL WEATHER SERVICE BISMARCK ND
200 PM CDT SAT APR 30 2016

NOTE: "FAIR" INDICATES FEW OR NO CLOUDS BELOW 12,000 FEET WITH NO
SIGNIFICANT WEATHER AND/OR OBSTRUCTIONS TO VISIBILITY.


NDZ001>003-009>011-017-302000-
NORTHWEST NORTH DAKOTA

CITY           SKY/WX    TMP DP  RH WIND       PRES   REMARKS
WILLISTON      SUNNY     61  27  27 E18G24    30.26S
MINOT          MOSUNNY   64  27  24 NE12G25   30.24F
MINOT AFB      SUNNY     61  28  29 E15G29    30.24S
$$

NDZ018>021-031>035-040>046-302000-
SOUTHWEST NORTH DAKOTA

CITY           SKY/WX    TMP DP  RH WIND       PRES   REMARKS
BISMARCK       SUNNY     59  31  34 NE25      30.19F
DICKINSON      CLOUDY    53  30  41 NE16      30.19R
GARRISON         N/A     59  29  31 E21G28    30.23S
HETTINGER ARPT MOSUNNY   55  31  39 NE15      30.17F
$$

NDZ004>008-012>016-024-026-027-054-302000-
NORTHEAST NORTH DAKOTA

CITY           SKY/WX    TMP DP  RH WIND       PRES   REMARKS
GRAND FORKS    MOSUNNY   61  30  31 NE20G30   30.22F
GRND FRKS AFB  SUNNY     60  28  28 E20G25    30.22F
DEVILS LAKE    SUNNY     58  29  33 E20G25    30.25S
$$

NDZ022-023-025-028>030-036>039-047>053-302000-
SOUTHEAST NORTH DAKOTA

CITY           SKY/WX    TMP DP  RH WIND       PRES   REMARKS
FARGO          CLOUDY    62  28  27 NE22G30   30.15F
JAMESTOWN      SUNNY     59  29  31 NE26G35   30.17F
$$




USA.gov is the U.S. government's official web portal to all federal, state and local government web resources and services.